Time,TemperatureF,DewpointF,PressureIn,WindDirection,WindDirectionDegrees,WindSpeedMPH,WindSpeedGustMPH,Humidity,HourlyPrecipIn,Conditions,Clouds,dailyrainin,SolarRadiationWatts/m^2,SoftwareType,DateUTC
2013-03-15 00:00:00,24.9,9.4,29.87,SE,146,0.0,2.0,51,0.00,,,0.00,0,HR-IXP-WINDi_r2_v1.2,2013-03-15 04:00:00,
2013-03-15 00:05:00,24.9,9.8,29.87,South,183,0.0,1.0,52,0.00,,,0.00,0,HR-IXP-WINDi_r2_v1.2,2013-03-15 04:05:00,
2013-03-15 00:10:00,24.8,9.7,29.86,SW,214,0.0,1.0,52,0.00,,,0.00,0,HR-IXP-WINDi_r2_v1.2,2013-03-15 04:10:00,
2013-03-15 00:15:00,24.8,9.7,29.86,South,181,0.0,1.0,52,0.00,,,0.00,0,HR-IXP-WINDi_r2_v1.2,2013-03-15 04:15:00,
2013-03-15 00:20:00,24.7,9.6,29.86,South,174,0.0,2.0,52,0.00,,,0.00,0,HR-IXP-WINDi_r2_v1.2,2013-03-15 04:20:00,
2013-03-15 00:25:00,24.7,10.0,29.86,South,171,0.0,2.0,53,0.00,,,0.00,0,HR-IXP-WINDi_r2_v1.2,2013-03-15 04:25:00,
2013-03-15 00:30:00,24.6,10.0,29.86,South,171,0.0,1.0,53,0.00,,,0.00,0,HR-IXP-WINDi_r2_v1.2,2013-03-15 04:30:00,
2013-03-15 00:35:00,24.6,10.0,29.87,ESE,120,0.0,2.0,53,0.00,,,0.00,0,HR-IXP-WINDi_r2_v1.2,2013-03-15 04:35:00,
2013-03-15 00:41:00,24.7,10.5,29.87,South,177,0.0,2.0,54,0.00,,,0.00,0,HR-IXP-WINDi_r2_v1.2,2013-03-15 04:41:00,
2013-03-15 00:46:00,24.7,10.5,29.86,South,169,0.0,2.0,54,0.00,,,0.00,0,HR-IXP-WINDi_r2_v1.2,2013-03-15 04:46:00,
2013-03-15 00:51:00,24.8,10.6,29.86,SSE,166,0.0,2.0,54,0.00,,,0.00,0,HR-IXP-WINDi_r2_v1.2,2013-03-15 04:51:00,
2013-03-15 00:56:00,24.9,10.6,29.86,SW,215,0.0,2.0,54,0.00,,,0.00,0,HR-IXP-WINDi_r2_v1.2,2013-03-15 04:56:00,
2013-03-15 01:01:00,24.9,10.6,29.87,ENE,78,0.0,2.0,54,0.00,,,0.00,0,HR-IXP-WINDi_r2_v1.2,2013-03-15 05:01:00,
2013-03-15 01:06:00,25.1,10.8,29.86,East,84,0.0,2.0,54,0.00,,,0.00,0,HR-IXP-WINDi_r2_v1.2,2013-03-15 05:06:00,
2013-03-15 01:11:00,25.0,10.7,29.87,SE,132,1.0,2.0,54,0.00,,,0.00,0,HR-IXP-WINDi_r2_v1.2,2013-03-15 05:11:00,
2013-03-15 01:17:00,25.0,11.2,29.87,SE,146,0.0,2.0,55,0.00,,,0.00,0,HR-IXP-WINDi_r2_v1.2,2013-03-15 05:17:00,
2013-03-15 01:22:00,25.0,11.2,29.87,SE,136,0.0,1.0,55,0.00,,,0.00,0,HR-IXP-WINDi_r2_v1.2,2013-03-15 05:22:00,
2013-03-15 01:27:00,25.1,11.2,29.87,West,262,0.0,3.0,55,0.00,,,0.00,0,HR-IXP-WINDi_r2_v1.2,2013-03-15 05:27:00,
2013-03-15 01:32:00,25.2,11.3,29.87,SSW,209,1.0,3.0,55,0.00,,,0.00,0,HR-IXP-WINDi_r2_v1.2,2013-03-15 05:32:00,
2013-03-15 01:37:00,25.2,11.3,29.87,South,182,0.0,2.0,55,0.00,,,0.00,0,HR-IXP-WINDi_r2_v1.2,2013-03-15 05:37:00,
2013-03-15 01:42:00,25.2,11.3,29.87,South,183,0.0,1.0,55,0.00,,,0.00,0,HR-IXP-WINDi_r2_v1.2,2013-03-15 05:42:00,
2013-03-15 01:47:00,25.2,11.3,29.87,SE,126,0.0,2.0,55,0.00,,,0.00,0,HR-IXP-WINDi_r2_v1.2,2013-03-15 05:47:00,
2013-03-15 01:53:00,25.2,11.3,29.87,SE,126,0.0,2.0,55,0.00,,,0.00,0,HR-IXP-WINDi_r2_v1.2,2013-03-15 05:53:00,
2013-03-15 01:58:00,25.4,11.5,29.88,SW,229,0.0,2.0,55,0.00,,,0.00,0,HR-IXP-WINDi_r2_v1.2,2013-03-15 05:58:00,
2013-03-15 02:04:00,25.3,11.0,29.88,SW,217,0.0,2.0,54,0.00,,,0.00,0,HR-IXP-WINDi_r2_v1.2,2013-03-15 06:04:00,
2013-03-15 02:09:00,25.3,11.4,29.87,South,183,0.0,3.0,55,0.00,,,0.00,0,HR-IXP-WINDi_r2_v1.2,2013-03-15 06:09:00,
2013-03-15 02:14:00,25.3,11.0,29.88,SSW,202,0.0,3.0,54,0.00,,,0.00,0,HR-IXP-WINDi_r2_v1.2,2013-03-15 06:14:00,
2013-03-15 02:19:00,25.2,10.9,29.88,SSW,205,0.0,3.0,54,0.00,,,0.00,0,HR-IXP-WINDi_r2_v1.2,2013-03-15 06:19:00,
2013-03-15 02:24:00,25.2,10.9,29.88,South,186,0.0,3.0,54,0.00,,,0.00,0,HR-IXP-WINDi_r2_v1.2,2013-03-15 06:24:00,
2013-03-15 02:30:00,25.2,10.9,29.88,SSW,199,0.0,2.0,54,0.00,,,0.00,0,HR-IXP-WINDi_r2_v1.2,2013-03-15 06:30:00,
2013-03-15 02:35:00,25.2,10.5,29.88,SSW,209,0.0,3.0,53,0.00,,,0.00,0,HR-IXP-WINDi_r2_v1.2,2013-03-15 06:35:00,
2013-03-15 02:40:00,25.2,10.9,29.88,SSW,209,0.0,3.0,54,0.00,,,0.00,0,HR-IXP-WINDi_r2_v1.2,2013-03-15 06:40:00,
2013-03-15 02:45:00,25.2,10.9,29.88,SSW,202,0.0,1.0,54,0.00,,,0.00,0,HR-IXP-WINDi_r2_v1.2,2013-03-15 06:45:00,
2013-03-15 02:50:00,25.2,10.5,29.87,SSW,205,0.0,1.0,53,0.00,,,0.00,0,HR-IXP-WINDi_r2_v1.2,2013-03-15 06:50:00,
2013-03-15 02:56:00,25.1,10.8,29.88,SSW,209,0.0,1.0,54,0.00,,,0.00,0,HR-IXP-WINDi_r2_v1.2,2013-03-15 06:56:00,
2013-03-15 03:02:00,25.0,10.7,29.87,SSW,203,0.0,1.0,54,0.00,,,0.00,0,HR-IXP-WINDi_r2_v1.2,2013-03-15 07:02:00,
2013-03-15 03:07:00,24.9,10.2,29.87,SSW,203,0.0,1.0,53,0.00,,,0.00,0,HR-IXP-WINDi_r2_v1.2,2013-03-15 07:07:00,
2013-03-15 03:13:00,24.7,10.5,29.87,South,188,0.0,1.0,54,0.00,,,0.00,0,HR-IXP-WINDi_r2_v1.2,2013-03-15 07:13:00,
2013-03-15 03:18:00,24.7,10.5,29.87,South,188,0.0,1.0,54,0.00,,,0.00,0,HR-IXP-WINDi_r2_v1.2,2013-03-15 07:18:00,
2013-03-15 03:23:00,24.6,10.4,29.87,SE,142,1.0,4.0,54,0.00,,,0.00,0,HR-IXP-WINDi_r2_v1.2,2013-03-15 07:23:00,
2013-03-15 03:28:00,24.5,9.9,29.87,SE,128,0.0,4.0,53,0.00,,,0.00,0,HR-IXP-WINDi_r2_v1.2,2013-03-15 07:28:00,
2013-03-15 03:34:00,24.4,10.2,29.87,SE,128,0.0,2.0,54,0.00,,,0.00,0,HR-IXP-WINDi_r2_v1.2,2013-03-15 07:34:00,
2013-03-15 03:39:00,24.3,10.1,29.87,SSE,148,0.0,2.0,54,0.00,,,0.00,0,HR-IXP-WINDi_r2_v1.2,2013-03-15 07:39:00,
2013-03-15 03:44:00,24.2,10.0,29.87,SSE,148,0.0,1.0,54,0.00,,,0.00,0,HR-IXP-WINDi_r2_v1.2,2013-03-15 07:44:00,
2013-03-15 03:49:00,24.1,9.9,29.87,South,169,0.0,2.0,54,0.00,,,0.00,0,HR-IXP-WINDi_r2_v1.2,2013-03-15 07:49:00,
2013-03-15 03:54:00,24.0,10.2,29.87,South,175,0.0,2.0,55,0.00,,,0.00,0,HR-IXP-WINDi_r2_v1.2,2013-03-15 07:54:00,
2013-03-15 03:59:00,23.9,10.1,29.87,South,175,0.0,1.0,55,0.00,,,0.00,0,HR-IXP-WINDi_r2_v1.2,2013-03-15 07:59:00,
2013-03-15 04:05:00,23.8,10.0,29.87,SSW,204,0.0,2.0,55,0.00,,,0.00,0,HR-IXP-WINDi_r2_v1.2,2013-03-15 08:05:00,
2013-03-15 04:10:00,23.8,10.0,29.87,SW,214,1.0,2.0,55,0.00,,,0.00,0,HR-IXP-WINDi_r2_v1.2,2013-03-15 08:10:00,
2013-03-15 04:15:00,23.7,9.9,29.87,SSW,202,0.0,2.0,55,0.00,,,0.00,0,HR-IXP-WINDi_r2_v1.2,2013-03-15 08:15:00,
2013-03-15 04:20:00,23.6,9.8,29.87,SSW,192,0.0,2.0,55,0.00,,,0.00,0,HR-IXP-WINDi_r2_v1.2,2013-03-15 08:20:00,
2013-03-15 04:25:00,23.5,9.8,29.87,South,188,0.0,1.0,55,0.00,,,0.00,0,HR-IXP-WINDi_r2_v1.2,2013-03-15 08:25:00,
2013-03-15 04:30:00,23.4,9.3,29.87,ESE,110,2.0,2.0,54,0.00,,,0.00,0,HR-IXP-WINDi_r2_v1.2,2013-03-15 08:30:00,
2013-03-15 04:36:00,23.4,9.3,29.87,SSW,197,0.0,2.0,54,0.00,,,0.00,0,HR-IXP-WINDi_r2_v1.2,2013-03-15 08:36:00,
2013-03-15 04:41:00,23.4,9.3,29.88,SSW,197,0.0,2.0,54,0.00,,,0.00,0,HR-IXP-WINDi_r2_v1.2,2013-03-15 08:41:00,
2013-03-15 04:46:00,23.2,9.5,29.88,South,178,0.0,1.0,55,0.00,,,0.00,0,HR-IXP-WINDi_r2_v1.2,2013-03-15 08:46:00,
2013-03-15 04:51:00,23.1,9.4,29.88,South,178,0.0,1.0,55,0.00,,,0.00,0,HR-IXP-WINDi_r2_v1.2,2013-03-15 08:51:00,
2013-03-15 04:58:00,23.0,9.3,29.88,South,178,0.0,1.0,55,0.00,,,0.00,0,HR-IXP-WINDi_r2_v1.2,2013-03-15 08:58:00,
2013-03-15 05:03:00,22.9,9.2,29.88,South,185,0.0,1.0,55,0.00,,,0.00,0,HR-IXP-WINDi_r2_v1.2,2013-03-15 09:03:00,
2013-03-15 05:08:00,22.8,8.7,29.88,SSW,198,0.0,2.0,54,0.00,,,0.00,0,HR-IXP-WINDi_r2_v1.2,2013-03-15 09:08:00,
2013-03-15 05:14:00,22.8,8.7,29.89,SSW,199,1.0,2.0,54,0.00,,,0.00,0,HR-IXP-WINDi_r2_v1.2,2013-03-15 09:14:00,
2013-03-15 05:19:00,22.7,7.8,29.89,SSW,198,0.0,2.0,52,0.00,,,0.00,0,HR-IXP-WINDi_r2_v1.2,2013-03-15 09:19:00,
2013-03-15 05:24:00,22.7,7.8,29.89,SW,215,0.0,5.0,52,0.00,,,0.00,0,HR-IXP-WINDi_r2_v1.2,2013-03-15 09:24:00,
2013-03-15 05:29:00,22.6,7.7,29.89,SW,223,0.0,5.0,52,0.00,,,0.00,0,HR-IXP-WINDi_r2_v1.2,2013-03-15 09:29:00,
2013-03-15 05:34:00,22.5,7.2,29.89,SSW,198,0.0,3.0,51,0.00,,,0.00,0,HR-IXP-WINDi_r2_v1.2,2013-03-15 09:34:00,
2013-03-15 05:39:00,22.5,7.2,29.89,South,178,0.0,1.0,51,0.00,,,0.00,0,HR-IXP-WINDi_r2_v1.2,2013-03-15 09:39:00,
2013-03-15 05:44:00,22.4,7.1,29.89,South,178,0.0,1.0,51,0.00,,,0.00,0,HR-IXP-WINDi_r2_v1.2,2013-03-15 09:44:00,
2013-03-15 05:50:00,22.4,7.1,29.89,SSE,165,0.0,2.0,51,0.00,,,0.00,0,HR-IXP-WINDi_r2_v1.2,2013-03-15 09:50:00,
2013-03-15 05:55:00,22.3,7.0,29.89,SSE,164,0.0,2.0,51,0.00,,,0.00,0,HR-IXP-WINDi_r2_v1.2,2013-03-15 09:55:00,
2013-03-15 06:00:00,22.3,7.0,29.89,SSE,161,0.0,1.0,51,0.00,,,0.00,0,HR-IXP-WINDi_r2_v1.2,2013-03-15 10:00:00,
2013-03-15 06:05:00,22.3,7.0,29.90,SSE,156,0.0,1.0,51,0.00,,,0.00,0,HR-IXP-WINDi_r2_v1.2,2013-03-15 10:05:00,
2013-03-15 06:10:00,22.3,7.0,29.90,SSE,156,0.0,1.0,51,0.00,,,0.00,0,HR-IXP-WINDi_r2_v1.2,2013-03-15 10:10:00,
2013-03-15 06:15:00,22.2,6.9,29.90,SSE,153,0.0,2.0,51,0.00,,,0.00,0,HR-IXP-WINDi_r2_v1.2,2013-03-15 10:15:00,
2013-03-15 06:20:00,22.2,6.9,29.90,West,263,1.0,2.0,51,0.00,,,0.00,0,HR-IXP-WINDi_r2_v1.2,2013-03-15 10:20:00,
2013-03-15 06:26:00,22.2,7.3,29.90,West,259,0.0,2.0,52,0.00,,,0.00,0,HR-IXP-WINDi_r2_v1.2,2013-03-15 10:26:00,
2013-03-15 06:31:00,22.2,7.3,29.90,WSW,254,0.0,2.0,52,0.00,,,0.00,0,HR-IXP-WINDi_r2_v1.2,2013-03-15 10:31:00,
2013-03-15 06:36:00,22.2,7.3,29.90,SSE,152,1.0,2.0,52,0.00,,,0.00,0,HR-IXP-WINDi_r2_v1.2,2013-03-15 10:36:00,
2013-03-15 06:42:00,22.2,7.3,29.90,SSE,156,0.0,2.0,52,0.00,,,0.00,0,HR-IXP-WINDi_r2_v1.2,2013-03-15 10:42:00,
2013-03-15 06:47:00,22.2,7.3,29.90,SSE,154,0.0,1.0,52,0.00,,,0.00,0,HR-IXP-WINDi_r2_v1.2,2013-03-15 10:47:00,
2013-03-15 06:52:00,22.1,7.2,29.90,SSE,154,0.0,1.0,52,0.00,,,0.00,0,HR-IXP-WINDi_r2_v1.2,2013-03-15 10:52:00,
2013-03-15 06:57:00,22.1,7.2,29.90,South,172,0.0,1.0,52,0.00,,,0.00,0,HR-IXP-WINDi_r2_v1.2,2013-03-15 10:57:00,
2013-03-15 07:02:00,22.0,7.5,29.90,SSE,152,0.0,2.0,53,0.00,,,0.00,5,HR-IXP-WINDi_r2_v1.2,2013-03-15 11:02:00,
2013-03-15 07:07:00,22.1,7.6,29.90,WSW,239,0.0,2.0,53,0.00,,,0.00,7,HR-IXP-WINDi_r2_v1.2,2013-03-15 11:07:00,
2013-03-15 07:13:00,22.1,8.0,29.90,WSW,239,0.0,1.0,54,0.00,,,0.00,11,HR-IXP-WINDi_r2_v1.2,2013-03-15 11:13:00,
2013-03-15 07:18:00,22.1,7.6,29.90,SSW,212,0.0,1.0,53,0.00,,,0.00,11,HR-IXP-WINDi_r2_v1.2,2013-03-15 11:18:00,
2013-03-15 07:23:00,22.3,8.2,29.91,SW,216,0.0,1.0,54,0.00,,,0.00,12,HR-IXP-WINDi_r2_v1.2,2013-03-15 11:23:00,
2013-03-15 07:28:00,22.4,8.3,29.91,SSW,213,0.0,1.0,54,0.00,,,0.00,16,HR-IXP-WINDi_r2_v1.2,2013-03-15 11:28:00,
2013-03-15 07:33:00,22.4,8.3,29.91,SSW,212,0.0,1.0,54,0.00,,,0.00,18,HR-IXP-WINDi_r2_v1.2,2013-03-15 11:33:00,
2013-03-15 07:38:00,22.6,8.5,29.91,SW,222,0.0,1.0,54,0.00,,,0.00,26,HR-IXP-WINDi_r2_v1.2,2013-03-15 11:38:00,
2013-03-15 07:43:00,22.8,8.7,29.90,SSW,207,0.0,1.0,54,0.00,,,0.00,40,HR-IXP-WINDi_r2_v1.2,2013-03-15 11:43:00,
2013-03-15 07:48:00,23.1,9.0,29.91,South,171,0.0,1.0,54,0.00,,,0.00,28,HR-IXP-WINDi_r2_v1.2,2013-03-15 11:48:00,
2013-03-15 07:53:00,23.2,8.7,29.90,South,178,0.0,1.0,53,0.00,,,0.00,70,HR-IXP-WINDi_r2_v1.2,2013-03-15 11:53:00,
2013-03-15 07:59:00,23.5,8.9,29.90,SW,232,0.0,2.0,53,0.00,,,0.00,86,HR-IXP-WINDi_r2_v1.2,2013-03-15 11:59:00,
2013-03-15 08:04:00,23.6,8.6,29.91,SW,232,0.0,2.0,52,0.00,,,0.00,105,HR-IXP-WINDi_r2_v1.2,2013-03-15 12:04:00,
2013-03-15 08:09:00,23.8,8.8,29.91,WSW,240,0.0,2.0,52,0.00,,,0.00,107,HR-IXP-WINDi_r2_v1.2,2013-03-15 12:09:00,
2013-03-15 08:14:00,24.1,9.1,29.91,SW,229,0.0,1.0,52,0.00,,,0.00,102,HR-IXP-WINDi_r2_v1.2,2013-03-15 12:14:00,
2013-03-15 08:19:00,24.4,9.3,29.91,SW,231,0.0,1.0,52,0.00,,,0.00,44,HR-IXP-WINDi_r2_v1.2,2013-03-15 12:19:00,
2013-03-15 08:24:00,24.9,9.8,29.91,SSE,147,0.0,4.0,52,0.00,,,0.00,107,HR-IXP-WINDi_r2_v1.2,2013-03-15 12:24:00,
2013-03-15 08:29:00,25.2,9.7,29.91,SE,145,1.0,4.0,51,0.00,,,0.00,364,HR-IXP-WINDi_r2_v1.2,2013-03-15 12:29:00,
2013-03-15 08:34:00,25.7,10.1,29.91,SW,215,0.0,2.0,51,0.00,,,0.00,149,HR-IXP-WINDi_r2_v1.2,2013-03-15 12:34:00,
2013-03-15 08:39:00,26.0,10.0,29.91,South,179,0.0,2.0,50,0.00,,,0.00,107,HR-IXP-WINDi_r2_v1.2,2013-03-15 12:39:00,
2013-03-15 08:45:00,25.7,9.7,29.91,SW,219,0.0,1.0,50,0.00,,,0.00,97,HR-IXP-WINDi_r2_v1.2,2013-03-15 12:45:00,
2013-03-15 08:50:00,25.9,9.9,29.91,SSE,148,0.0,2.0,50,0.00,,,0.00,137,HR-IXP-WINDi_r2_v1.2,2013-03-15 12:50:00,
2013-03-15 08:55:00,26.0,9.5,29.91,South,175,0.0,2.0,49,0.00,,,0.00,248,HR-IXP-WINDi_r2_v1.2,2013-03-15 12:55:00,
2013-03-15 09:00:00,26.2,10.1,29.90,South,173,0.0,2.0,50,0.00,,,0.00,267,HR-IXP-WINDi_r2_v1.2,2013-03-15 13:00:00,
2013-03-15 09:05:00,26.9,10.3,29.91,South,169,0.0,2.0,49,0.00,,,0.00,339,HR-IXP-WINDi_r2_v1.2,2013-03-15 13:05:00,
2013-03-15 09:10:00,27.6,10.0,29.91,SSW,203,0.0,2.0,47,0.00,,,0.00,336,HR-IXP-WINDi_r2_v1.2,2013-03-15 13:10:00,
2013-03-15 09:15:00,27.9,10.3,29.91,SSE,165,0.0,2.0,47,0.00,,,0.00,434,HR-IXP-WINDi_r2_v1.2,2013-03-15 13:15:00,
2013-03-15 09:21:00,28.2,10.1,29.91,SSW,200,0.0,3.0,46,0.00,,,0.00,338,HR-IXP-WINDi_r2_v1.2,2013-03-15 13:21:00,
2013-03-15 09:26:00,27.9,9.4,29.91,SE,128,1.0,3.0,45,0.00,,,0.00,172,HR-IXP-WINDi_r2_v1.2,2013-03-15 13:26:00,
2013-03-15 09:31:00,28.2,10.1,29.91,SE,132,0.0,2.0,46,0.00,,,0.00,165,HR-IXP-WINDi_r2_v1.2,2013-03-15 13:31:00,
2013-03-15 09:36:00,28.7,10.1,29.91,South,175,0.0,2.0,45,0.00,,,0.00,120,HR-IXP-WINDi_r2_v1.2,2013-03-15 13:36:00,
2013-03-15 09:42:00,28.5,9.9,29.91,South,171,0.0,2.0,45,0.00,,,0.00,120,HR-IXP-WINDi_r2_v1.2,2013-03-15 13:42:00,
2013-03-15 09:47:00,28.9,10.8,29.91,South,171,0.0,1.0,46,0.00,,,0.00,318,HR-IXP-WINDi_r2_v1.2,2013-03-15 13:47:00,
2013-03-15 09:52:00,29.1,10.4,29.90,SSE,165,0.0,2.0,45,0.00,,,0.00,287,HR-IXP-WINDi_r2_v1.2,2013-03-15 13:52:00,
2013-03-15 09:57:00,28.9,9.8,29.90,ESE,103,0.0,2.0,44,0.00,,,0.00,183,HR-IXP-WINDi_r2_v1.2,2013-03-15 13:57:00,
2013-03-15 10:02:00,29.3,10.6,29.90,SSW,205,0.0,2.0,45,0.00,,,0.00,346,HR-IXP-WINDi_r2_v1.2,2013-03-15 14:02:00,
2013-03-15 10:07:00,29.8,10.6,29.90,SSE,165,0.0,2.0,44,0.00,,,0.00,264,HR-IXP-WINDi_r2_v1.2,2013-03-15 14:07:00,
2013-03-15 10:12:00,30.4,10.6,29.89,SSE,164,0.0,1.0,43,0.00,,,0.00,239,HR-IXP-WINDi_r2_v1.2,2013-03-15 14:12:00,
2013-03-15 10:18:00,29.8,9.5,29.89,SW,234,0.0,2.0,42,0.00,,,0.00,229,HR-IXP-WINDi_r2_v1.2,2013-03-15 14:18:00,
2013-03-15 10:23:00,29.9,10.2,29.89,South,189,1.0,2.0,43,0.00,,,0.00,237,HR-IXP-WINDi_r2_v1.2,2013-03-15 14:23:00,
2013-03-15 10:28:00,30.8,11.0,29.89,South,188,0.0,1.0,43,0.00,,,0.00,269,HR-IXP-WINDi_r2_v1.2,2013-03-15 14:28:00,
2013-03-15 10:33:00,30.8,9.9,29.88,SSW,202,0.0,1.0,41,0.00,,,0.00,243,HR-IXP-WINDi_r2_v1.2,2013-03-15 14:33:00,
2013-03-15 10:38:00,31.3,11.4,29.88,SSW,200,0.0,1.0,43,0.00,,,0.00,218,HR-IXP-WINDi_r2_v1.2,2013-03-15 14:38:00,
2013-03-15 10:43:00,31.0,10.1,29.88,West,262,1.0,2.0,41,0.00,,,0.00,281,HR-IXP-WINDi_r2_v1.2,2013-03-15 14:43:00,
2013-03-15 10:48:00,31.3,10.9,29.88,East,98,0.0,3.0,42,0.00,,,0.00,294,HR-IXP-WINDi_r2_v1.2,2013-03-15 14:48:00,
2013-03-15 10:53:00,31.5,10.0,29.88,SE,136,0.0,3.0,40,0.00,,,0.00,274,HR-IXP-WINDi_r2_v1.2,2013-03-15 14:53:00,
2013-03-15 10:58:00,31.7,10.2,29.88,SE,140,0.0,3.0,40,0.00,,,0.00,192,HR-IXP-WINDi_r2_v1.2,2013-03-15 14:58:00,
2013-03-15 11:03:00,31.8,10.3,29.87,SE,140,0.0,1.0,40,0.00,,,0.00,181,HR-IXP-WINDi_r2_v1.2,2013-03-15 15:03:00,
2013-03-15 11:09:00,32.0,9.9,29.87,SSE,152,0.0,1.0,39,0.00,,,0.00,178,HR-IXP-WINDi_r2_v1.2,2013-03-15 15:09:00,
2013-03-15 11:14:00,31.9,9.8,29.87,SW,221,0.0,2.0,39,0.00,,,0.00,353,HR-IXP-WINDi_r2_v1.2,2013-03-15 15:14:00,
2013-03-15 11:19:00,32.6,9.8,29.87,SSE,168,0.0,2.0,38,0.00,,,0.00,299,HR-IXP-WINDi_r2_v1.2,2013-03-15 15:19:00,
2013-03-15 11:24:00,33.3,10.5,29.87,South,169,0.0,1.0,38,0.00,,,0.00,297,HR-IXP-WINDi_r2_v1.2,2013-03-15 15:24:00,
2013-03-15 11:29:00,33.5,8.8,29.86,South,176,0.0,2.0,35,0.00,,,0.00,211,HR-IXP-WINDi_r2_v1.2,2013-03-15 15:29:00,
2013-03-15 11:34:00,33.8,9.7,29.86,West,273,0.0,2.0,36,0.00,,,0.00,427,HR-IXP-WINDi_r2_v1.2,2013-03-15 15:34:00,
2013-03-15 11:39:00,34.6,9.8,29.86,SW,236,0.0,1.0,35,0.00,,,0.00,446,HR-IXP-WINDi_r2_v1.2,2013-03-15 15:39:00,
2013-03-15 11:44:00,35.8,10.2,29.86,SSW,194,0.0,1.0,34,0.00,,,0.00,580,HR-IXP-WINDi_r2_v1.2,2013-03-15 15:44:00,
2013-03-15 11:50:00,37.0,10.6,29.85,South,190,0.0,2.0,33,0.00,,,0.00,775,HR-IXP-WINDi_r2_v1.2,2013-03-15 15:50:00,
2013-03-15 11:55:00,36.9,9.8,29.85,SSE,150,0.0,2.0,32,0.00,,,0.00,439,HR-IXP-WINDi_r2_v1.2,2013-03-15 15:55:00,
2013-03-15 12:00:00,37.2,10.1,29.85,SSW,211,0.0,2.0,32,0.00,,,0.00,330,HR-IXP-WINDi_r2_v1.2,2013-03-15 16:00:00,
2013-03-15 12:05:00,36.6,9.6,29.85,ESE,115,0.0,2.0,32,0.00,,,0.00,262,HR-IXP-WINDi_r2_v1.2,2013-03-15 16:05:00,
2013-03-15 12:10:00,36.2,9.2,29.84,WSW,257,0.0,2.0,32,0.00,,,0.00,348,HR-IXP-WINDi_r2_v1.2,2013-03-15 16:10:00,
2013-03-15 12:15:00,36.2,9.2,29.84,West,279,1.0,4.0,32,0.00,,,0.00,510,HR-IXP-WINDi_r2_v1.2,2013-03-15 16:15:00,
2013-03-15 12:20:00,36.5,10.2,29.83,West,273,0.0,4.0,33,0.00,,,0.00,712,HR-IXP-WINDi_r2_v1.2,2013-03-15 16:20:00,
2013-03-15 12:25:00,37.7,9.8,29.83,West,275,1.0,4.0,31,0.00,,,0.00,856,HR-IXP-WINDi_r2_v1.2,2013-03-15 16:25:00,
2013-03-15 12:30:00,38.8,10.8,29.83,SSW,207,1.0,4.0,31,0.00,,,0.00,772,HR-IXP-WINDi_r2_v1.2,2013-03-15 16:30:00,
2013-03-15 12:36:00,38.9,9.4,29.83,SSW,207,0.0,2.0,29,0.00,,,0.00,638,HR-IXP-WINDi_r2_v1.2,2013-03-15 16:36:00,
2013-03-15 12:41:00,38.8,8.5,29.82,SSW,198,0.0,2.0,28,0.00,,,0.00,483,HR-IXP-WINDi_r2_v1.2,2013-03-15 16:41:00,
2013-03-15 12:46:00,38.9,8.6,29.82,WSW,254,1.0,2.0,28,0.00,,,0.00,383,HR-IXP-WINDi_r2_v1.2,2013-03-15 16:46:00,
2013-03-15 12:51:00,38.5,7.5,29.82,South,182,0.0,2.0,27,0.00,,,0.00,557,HR-IXP-WINDi_r2_v1.2,2013-03-15 16:51:00,
2013-03-15 12:56:00,38.9,8.6,29.81,SE,137,0.0,2.0,28,0.00,,,0.00,613,HR-IXP-WINDi_r2_v1.2,2013-03-15 16:56:00,
2013-03-15 13:01:00,40.1,9.6,29.81,SE,137,0.0,2.0,28,0.00,,,0.00,700,HR-IXP-WINDi_r2_v1.2,2013-03-15 17:01:00,
2013-03-15 13:06:00,40.6,8.4,29.80,ESE,105,0.0,1.0,26,0.00,,,0.00,800,HR-IXP-WINDi_r2_v1.2,2013-03-15 17:06:00,
2013-03-15 13:11:00,40.7,9.4,29.80,SW,220,2.0,3.0,27,0.00,,,0.00,763,HR-IXP-WINDi_r2_v1.2,2013-03-15 17:11:00,
2013-03-15 13:17:00,41.9,9.5,29.79,SW,221,0.0,3.0,26,0.00,,,0.00,747,HR-IXP-WINDi_r2_v1.2,2013-03-15 17:17:00,
2013-03-15 13:22:00,43.4,10.0,29.79,South,177,0.0,3.0,25,0.00,,,0.00,775,HR-IXP-WINDi_r2_v1.2,2013-03-15 17:22:00,
2013-03-15 13:27:00,42.2,8.0,29.79,SSW,213,0.0,3.0,24,0.00,,,0.00,870,HR-IXP-WINDi_r2_v1.2,2013-03-15 17:27:00,
2013-03-15 13:32:00,43.6,10.1,29.78,WSW,238,0.0,3.0,25,0.00,,,0.00,742,HR-IXP-WINDi_r2_v1.2,2013-03-15 17:32:00,
2013-03-15 13:38:00,44.7,10.1,29.78,South,184,0.0,3.0,24,0.00,,,0.00,817,HR-IXP-WINDi_r2_v1.2,2013-03-15 17:38:00,
2013-03-15 13:43:00,44.2,8.8,29.78,SE,129,0.0,3.0,23,0.00,,,0.00,438,HR-IXP-WINDi_r2_v1.2,2013-03-15 17:43:00,
2013-03-15 13:48:00,43.8,9.4,29.78,SSE,155,0.0,2.0,24,0.00,,,0.00,410,HR-IXP-WINDi_r2_v1.2,2013-03-15 17:48:00,
2013-03-15 13:53:00,43.2,8.9,29.77,West,267,0.0,5.0,24,0.00,,,0.00,701,HR-IXP-WINDi_r2_v1.2,2013-03-15 17:53:00,
2013-03-15 13:58:00,44.2,9.7,29.77,SE,145,0.0,5.0,24,0.00,,,0.00,777,HR-IXP-WINDi_r2_v1.2,2013-03-15 17:58:00,
2013-03-15 14:04:00,43.6,7.3,29.76,SSW,202,0.0,3.0,22,0.00,,,0.00,675,HR-IXP-WINDi_r2_v1.2,2013-03-15 18:04:00,
2013-03-15 14:09:00,42.8,8.5,29.75,WSW,250,0.0,4.0,24,0.00,,,0.00,550,HR-IXP-WINDi_r2_v1.2,2013-03-15 18:09:00,
2013-03-15 14:14:00,42.1,7.9,29.75,West,273,3.0,4.0,24,0.00,,,0.00,589,HR-IXP-WINDi_r2_v1.2,2013-03-15 18:14:00,
2013-03-15 14:19:00,42.5,8.3,29.75,SW,227,1.0,4.0,24,0.00,,,0.00,438,HR-IXP-WINDi_r2_v1.2,2013-03-15 18:19:00,
2013-03-15 14:24:00,42.9,8.6,29.74,South,187,1.0,4.0,24,0.00,,,0.00,390,HR-IXP-WINDi_r2_v1.2,2013-03-15 18:24:00,
2013-03-15 14:29:00,42.2,8.0,29.74,WSW,257,1.0,3.0,24,0.00,,,0.00,207,HR-IXP-WINDi_r2_v1.2,2013-03-15 18:29:00,
2013-03-15 14:35:00,41.9,8.7,29.73,SSW,205,1.0,3.0,25,0.00,,,0.00,163,HR-IXP-WINDi_r2_v1.2,2013-03-15 18:35:00,
2013-03-15 14:40:00,41.7,8.5,29.73,West,262,1.0,3.0,25,0.00,,,0.00,127,HR-IXP-WINDi_r2_v1.2,2013-03-15 18:40:00,
2013-03-15 14:45:00,40.5,7.5,29.73,SSW,205,3.0,4.0,25,0.00,,,0.00,141,HR-IXP-WINDi_r2_v1.2,2013-03-15 18:45:00,
2013-03-15 14:50:00,40.7,8.5,29.73,West,265,1.0,4.0,26,0.00,,,0.00,132,HR-IXP-WINDi_r2_v1.2,2013-03-15 18:50:00,
2013-03-15 14:55:00,40.9,8.7,29.73,SW,232,0.0,4.0,26,0.00,,,0.00,232,HR-IXP-WINDi_r2_v1.2,2013-03-15 18:55:00,
2013-03-15 15:00:00,41.4,9.1,29.73,WSW,256,0.0,4.0,26,0.00,,,0.00,598,HR-IXP-WINDi_r2_v1.2,2013-03-15 19:00:00,
2013-03-15 15:05:00,42.9,9.5,29.73,West,262,1.0,5.0,25,0.00,,,0.00,698,HR-IXP-WINDi_r2_v1.2,2013-03-15 19:05:00,
2013-03-15 15:10:00,42.9,9.5,29.72,West,268,1.0,5.0,25,0.00,,,0.00,585,HR-IXP-WINDi_r2_v1.2,2013-03-15 19:10:00,
2013-03-15 15:15:00,44.0,10.5,29.72,SW,221,0.0,5.0,25,0.00,,,0.00,513,HR-IXP-WINDi_r2_v1.2,2013-03-15 19:15:00,
2013-03-15 15:21:00,43.6,11.0,29.72,WSW,246,0.0,5.0,26,0.00,,,0.00,473,HR-IXP-WINDi_r2_v1.2,2013-03-15 19:21:00,
2013-03-15 15:26:00,43.7,11.9,29.72,SW,222,0.0,5.0,27,0.00,,,0.00,492,HR-IXP-WINDi_r2_v1.2,2013-03-15 19:26:00,
2013-03-15 15:31:00,43.1,12.2,29.72,SSE,157,0.0,6.0,28,0.00,,,0.00,425,HR-IXP-WINDi_r2_v1.2,2013-03-15 19:31:00,
2013-03-15 15:36:00,43.5,12.6,29.72,WSW,250,0.0,6.0,28,0.00,,,0.00,313,HR-IXP-WINDi_r2_v1.2,2013-03-15 19:36:00,
2013-03-15 15:41:00,42.6,11.8,29.72,WSW,258,0.0,4.0,28,0.00,,,0.00,234,HR-IXP-WINDi_r2_v1.2,2013-03-15 19:41:00,
2013-03-15 15:47:00,42.3,13.8,29.71,WSW,249,1.0,6.0,31,0.00,,,0.00,204,HR-IXP-WINDi_r2_v1.2,2013-03-15 19:47:00,
2013-03-15 15:52:00,42.0,13.6,29.71,SW,236,0.0,10.0,31,0.00,,,0.00,199,HR-IXP-WINDi_r2_v1.2,2013-03-15 19:52:00,
2013-03-15 15:57:00,42.7,14.2,29.71,SW,229,1.0,10.0,31,0.00,,,0.00,151,HR-IXP-WINDi_r2_v1.2,2013-03-15 19:57:00,
2013-03-15 16:02:00,42.6,14.8,29.71,West,265,0.0,5.0,32,0.00,,,0.00,132,HR-IXP-WINDi_r2_v1.2,2013-03-15 20:02:00,
2013-03-15 16:07:00,43.0,14.4,29.71,SSW,200,0.0,5.0,31,0.00,,,0.00,123,HR-IXP-WINDi_r2_v1.2,2013-03-15 20:07:00,
2013-03-15 16:12:00,43.2,15.3,29.71,WSW,252,0.0,4.0,32,0.00,,,0.00,107,HR-IXP-WINDi_r2_v1.2,2013-03-15 20:12:00,
2013-03-15 16:17:00,43.1,15.3,29.70,WSW,257,1.0,3.0,32,0.00,,,0.00,86,HR-IXP-WINDi_r2_v1.2,2013-03-15 20:17:00,
2013-03-15 16:22:00,42.6,14.8,29.69,West,259,0.0,5.0,32,0.00,,,0.00,77,HR-IXP-WINDi_r2_v1.2,2013-03-15 20:22:00,
2013-03-15 16:27:00,42.5,16.1,29.69,WSW,241,2.0,6.0,34,0.00,,,0.00,63,HR-IXP-WINDi_r2_v1.2,2013-03-15 20:27:00,
2013-03-15 16:33:00,43.2,16.7,29.69,South,190,1.0,6.0,34,0.00,,,0.00,58,HR-IXP-WINDi_r2_v1.2,2013-03-15 20:33:00,
2013-03-15 16:38:00,43.4,16.2,29.69,South,175,2.0,5.0,33,0.00,,,0.00,58,HR-IXP-WINDi_r2_v1.2,2013-03-15 20:38:00,
2013-03-15 16:43:00,42.9,16.5,29.69,South,173,0.0,5.0,34,0.00,,,0.00,72,HR-IXP-WINDi_r2_v1.2,2013-03-15 20:43:00,
2013-03-15 16:48:00,42.8,15.7,29.69,SW,236,0.0,5.0,33,0.00,,,0.00,58,HR-IXP-WINDi_r2_v1.2,2013-03-15 20:48:00,
2013-03-15 16:53:00,42.9,16.5,29.68,NNW,343,0.0,5.0,34,0.00,,,0.00,53,HR-IXP-WINDi_r2_v1.2,2013-03-15 20:53:00,
2013-03-15 16:59:00,42.9,16.5,29.68,SW,233,0.0,5.0,34,0.00,,,0.00,56,HR-IXP-WINDi_r2_v1.2,2013-03-15 20:59:00,
2013-03-15 17:04:00,42.9,16.5,29.68,West,276,0.0,4.0,34,0.00,,,0.00,58,HR-IXP-WINDi_r2_v1.2,2013-03-15 21:04:00,
2013-03-15 17:09:00,42.9,16.5,29.67,SSW,205,0.0,3.0,34,0.00,,,0.00,53,HR-IXP-WINDi_r2_v1.2,2013-03-15 21:09:00,
2013-03-15 17:14:00,42.9,16.5,29.68,SSE,147,1.0,2.0,34,0.00,,,0.00,49,HR-IXP-WINDi_r2_v1.2,2013-03-15 21:14:00,
2013-03-15 17:19:00,42.6,16.9,29.67,WSW,258,0.0,2.0,35,0.00,,,0.00,51,HR-IXP-WINDi_r2_v1.2,2013-03-15 21:19:00,
2013-03-15 17:24:00,42.4,17.3,29.68,SSE,148,0.0,2.0,36,0.00,,,0.00,47,HR-IXP-WINDi_r2_v1.2,2013-03-15 21:24:00,
2013-03-15 17:30:00,42.2,17.2,29.67,West,279,0.0,3.0,36,0.00,,,0.00,46,HR-IXP-WINDi_r2_v1.2,2013-03-15 21:30:00,
2013-03-15 17:35:00,42.2,17.8,29.67,ENE,63,0.0,4.0,37,0.00,,,0.00,39,HR-IXP-WINDi_r2_v1.2,2013-03-15 21:35:00,
2013-03-15 17:40:00,42.1,17.7,29.67,SW,235,0.0,4.0,37,0.00,,,0.00,32,HR-IXP-WINDi_r2_v1.2,2013-03-15 21:40:00,
2013-03-15 17:45:00,42.1,18.3,29.67,WSW,250,1.0,3.0,38,0.00,,,0.00,25,HR-IXP-WINDi_r2_v1.2,2013-03-15 21:45:00,
2013-03-15 17:50:00,42.1,18.9,29.67,West,266,1.0,4.0,39,0.00,,,0.00,25,HR-IXP-WINDi_r2_v1.2,2013-03-15 21:50:00,
2013-03-15 17:55:00,42.0,21.1,29.68,WSW,257,1.0,5.0,43,0.00,,,0.00,19,HR-IXP-WINDi_r2_v1.2,2013-03-15 21:55:00,
2013-03-15 18:00:00,41.6,22.3,29.68,WSW,247,0.0,6.0,46,0.00,,,0.00,18,HR-IXP-WINDi_r2_v1.2,2013-03-15 22:00:00,
2013-03-15 18:05:00,41.1,23.4,29.68,NW,309,0.0,6.0,49,0.00,,,0.00,14,HR-IXP-WINDi_r2_v1.2,2013-03-15 22:05:00,
2013-03-15 18:10:00,40.7,24.0,29.68,SW,232,0.0,4.0,51,0.00,,,0.00,12,HR-IXP-WINDi_r2_v1.2,2013-03-15 22:10:00,
2013-03-15 18:15:00,40.5,24.2,29.68,WSW,242,1.0,4.0,52,0.00,,,0.00,12,HR-IXP-WINDi_r2_v1.2,2013-03-15 22:15:00,
2013-03-15 18:21:00,40.3,24.1,29.68,SSW,200,1.0,4.0,52,0.00,,,0.00,9,HR-IXP-WINDi_r2_v1.2,2013-03-15 22:21:00,
2013-03-15 18:26:00,40.2,24.4,29.68,East,101,0.0,4.0,53,0.00,,,0.00,5,HR-IXP-WINDi_r2_v1.2,2013-03-15 22:26:00,
2013-03-15 18:31:00,40.2,24.4,29.68,West,265,0.0,4.0,53,0.00,,,0.00,0,HR-IXP-WINDi_r2_v1.2,2013-03-15 22:31:00,
2013-03-15 18:36:00,40.1,24.8,29.68,West,261,1.0,4.0,54,0.00,,,0.00,0,HR-IXP-WINDi_r2_v1.2,2013-03-15 22:36:00,
2013-03-15 18:41:00,40.1,24.8,29.68,ESE,111,2.0,4.0,54,0.00,,,0.00,0,HR-IXP-WINDi_r2_v1.2,2013-03-15 22:41:00,
2013-03-15 18:46:00,40.0,25.1,29.68,SSE,155,0.0,3.0,55,0.00,,,0.00,0,HR-IXP-WINDi_r2_v1.2,2013-03-15 22:46:00,
2013-03-15 18:51:00,40.0,25.1,29.68,WSW,242,1.0,3.0,55,0.00,,,0.00,0,HR-IXP-WINDi_r2_v1.2,2013-03-15 22:51:00,
2013-03-15 18:57:00,39.9,25.0,29.68,WSW,255,0.0,4.0,55,0.00,,,0.00,0,HR-IXP-WINDi_r2_v1.2,2013-03-15 22:57:00,
2013-03-15 19:02:00,39.9,25.5,29.68,SE,146,1.0,5.0,56,0.00,,,0.00,0,HR-IXP-WINDi_r2_v1.2,2013-03-15 23:02:00,
2013-03-15 19:07:00,39.8,25.4,29.68,South,188,0.0,5.0,56,0.00,,,0.00,0,HR-IXP-WINDi_r2_v1.2,2013-03-15 23:07:00,
2013-03-15 19:12:00,39.8,25.4,29.68,WSW,252,2.0,4.0,56,0.00,,,0.00,0,HR-IXP-WINDi_r2_v1.2,2013-03-15 23:12:00,
2013-03-15 19:18:00,39.7,25.7,29.68,SW,227,1.0,4.0,57,0.00,,,0.00,0,HR-IXP-WINDi_r2_v1.2,2013-03-15 23:18:00,
2013-03-15 19:23:00,39.7,25.7,29.68,WSW,240,0.0,4.0,57,0.00,,,0.00,0,HR-IXP-WINDi_r2_v1.2,2013-03-15 23:23:00,
2013-03-15 19:28:00,39.7,25.7,29.68,South,176,0.0,4.0,57,0.00,,,0.00,0,HR-IXP-WINDi_r2_v1.2,2013-03-15 23:28:00,
2013-03-15 19:33:00,39.7,25.7,29.68,SW,235,0.0,2.0,57,0.00,,,0.00,0,HR-IXP-WINDi_r2_v1.2,2013-03-15 23:33:00,
2013-03-15 19:39:00,39.6,25.6,29.69,WSW,248,1.0,1.0,57,0.00,,,0.00,0,HR-IXP-WINDi_r2_v1.2,2013-03-15 23:39:00,
2013-03-15 19:44:00,39.5,25.9,29.68,West,261,0.0,2.0,58,0.00,,,0.00,0,HR-IXP-WINDi_r2_v1.2,2013-03-15 23:44:00,
2013-03-15 19:49:00,39.4,25.8,29.68,WSW,238,0.0,2.0,58,0.00,,,0.00,0,HR-IXP-WINDi_r2_v1.2,2013-03-15 23:49:00,
2013-03-15 19:54:00,39.3,25.7,29.69,West,260,0.0,3.0,58,0.00,,,0.00,0,HR-IXP-WINDi_r2_v1.2,2013-03-15 23:54:00,
2013-03-15 19:59:00,39.2,25.7,29.69,West,264,0.0,3.0,58,0.00,,,0.00,0,HR-IXP-WINDi_r2_v1.2,2013-03-15 23:59:00,
2013-03-15 20:04:00,39.1,26.0,29.69,SSW,209,0.0,3.0,59,0.00,,,0.00,0,HR-IXP-WINDi_r2_v1.2,2013-03-16 00:04:00,
2013-03-15 20:10:00,39.1,26.0,29.69,SW,229,0.0,2.0,59,0.00,,,0.00,0,HR-IXP-WINDi_r2_v1.2,2013-03-16 00:10:00,
2013-03-15 20:15:00,39.2,26.1,29.69,WSW,257,0.0,2.0,59,0.00,,,0.00,0,HR-IXP-WINDi_r2_v1.2,2013-03-16 00:15:00,
2013-03-15 20:20:00,39.3,26.2,29.69,WSW,257,0.0,4.0,59,0.00,,,0.00,0,HR-IXP-WINDi_r2_v1.2,2013-03-16 00:20:00,
2013-03-15 20:25:00,39.3,26.2,29.69,SW,233,0.0,4.0,59,0.00,,,0.00,0,HR-IXP-WINDi_r2_v1.2,2013-03-16 00:25:00,
2013-03-15 20:30:00,39.4,26.3,29.69,WSW,242,0.0,1.0,59,0.00,,,0.00,0,HR-IXP-WINDi_r2_v1.2,2013-03-16 00:30:00,
2013-03-15 20:36:00,39.4,26.7,29.69,WSW,251,0.0,1.0,60,0.00,,,0.00,0,HR-IXP-WINDi_r2_v1.2,2013-03-16 00:36:00,
2013-03-15 20:41:00,39.3,26.6,29.69,West,259,0.0,3.0,60,0.00,,,0.00,0,HR-IXP-WINDi_r2_v1.2,2013-03-16 00:41:00,
2013-03-15 20:46:00,39.3,26.6,29.69,WSW,248,0.0,3.0,60,0.00,,,0.00,0,HR-IXP-WINDi_r2_v1.2,2013-03-16 00:46:00,
2013-03-15 20:51:00,39.3,26.6,29.69,West,263,0.0,1.0,60,0.00,,,0.00,0,HR-IXP-WINDi_r2_v1.2,2013-03-16 00:51:00,
2013-03-15 20:56:00,39.3,26.6,29.69,West,267,0.0,1.0,60,0.00,,,0.00,0,HR-IXP-WINDi_r2_v1.2,2013-03-16 00:56:00,
2013-03-15 21:01:00,39.2,26.9,29.69,West,265,1.0,7.0,61,0.00,,,0.00,0,HR-IXP-WINDi_r2_v1.2,2013-03-16 01:01:00,
2013-03-15 21:07:00,39.1,27.2,29.69,West,281,0.0,7.0,62,0.00,,,0.00,0,HR-IXP-WINDi_r2_v1.2,2013-03-16 01:07:00,
2013-03-15 21:12:00,38.8,26.9,29.69,West,272,0.0,4.0,62,0.00,,,0.00,0,HR-IXP-WINDi_r2_v1.2,2013-03-16 01:12:00,
2013-03-15 21:17:00,38.7,27.2,29.69,West,260,3.0,3.0,63,0.00,,,0.00,0,HR-IXP-WINDi_r2_v1.2,2013-03-16 01:17:00,
2013-03-15 21:22:00,38.5,27.4,29.69,West,263,0.0,3.0,64,0.00,,,0.00,0,HR-IXP-WINDi_r2_v1.2,2013-03-16 01:22:00,
2013-03-15 21:27:00,38.4,27.6,29.69,West,269,0.0,3.0,65,0.00,,,0.00,0,HR-IXP-WINDi_r2_v1.2,2013-03-16 01:27:00,
2013-03-15 21:33:00,38.2,27.5,29.69,West,280,1.0,3.0,65,0.00,,,0.00,0,HR-IXP-WINDi_r2_v1.2,2013-03-16 01:33:00,
2013-03-15 21:38:00,38.2,27.5,29.69,West,267,0.0,3.0,65,0.00,,,0.00,0,HR-IXP-WINDi_r2_v1.2,2013-03-16 01:38:00,
2013-03-15 21:43:00,38.0,27.6,29.69,West,268,0.0,3.0,66,0.00,,,0.00,0,HR-IXP-WINDi_r2_v1.2,2013-03-16 01:43:00,
2013-03-15 21:48:00,37.9,27.5,29.70,West,265,2.0,2.0,66,0.00,,,0.00,0,HR-IXP-WINDi_r2_v1.2,2013-03-16 01:48:00,
2013-03-15 21:54:00,37.9,27.5,29.69,West,263,0.0,2.0,66,0.00,,,0.00,0,HR-IXP-WINDi_r2_v1.2,2013-03-16 01:54:00,
2013-03-15 21:59:00,37.9,27.5,29.69,WSW,257,0.0,4.0,66,0.00,,,0.00,0,HR-IXP-WINDi_r2_v1.2,2013-03-16 01:59:00,
2013-03-15 22:04:00,37.9,27.5,29.69,WSW,254,0.0,4.0,66,0.00,,,0.00,0,HR-IXP-WINDi_r2_v1.2,2013-03-16 02:04:00,
2013-03-15 22:09:00,37.8,27.4,29.69,SW,233,1.0,1.0,66,0.00,,,0.00,0,HR-IXP-WINDi_r2_v1.2,2013-03-16 02:09:00,
2013-03-15 22:14:00,37.9,27.9,29.69,SW,234,0.0,1.0,67,0.00,,,0.00,0,HR-IXP-WINDi_r2_v1.2,2013-03-16 02:14:00,
2013-03-15 22:20:00,37.9,27.9,29.69,WSW,239,0.0,2.0,67,0.00,,,0.00,0,HR-IXP-WINDi_r2_v1.2,2013-03-16 02:20:00,
2013-03-15 22:26:00,37.9,27.9,29.69,WSW,250,0.0,2.0,67,0.00,,,0.00,0,HR-IXP-WINDi_r2_v1.2,2013-03-16 02:26:00,
2013-03-15 22:31:00,37.8,28.2,29.69,West,273,0.0,2.0,68,0.00,,,0.00,0,HR-IXP-WINDi_r2_v1.2,2013-03-16 02:31:00,
2013-03-15 22:36:00,37.6,28.0,29.69,WSW,244,0.0,2.0,68,0.00,,,0.00,0,HR-IXP-WINDi_r2_v1.2,2013-03-16 02:36:00,
2013-03-15 22:41:00,37.4,27.8,29.69,WSW,254,0.0,2.0,68,0.00,,,0.00,0,HR-IXP-WINDi_r2_v1.2,2013-03-16 02:41:00,
2013-03-15 22:46:00,37.3,28.0,29.69,SSW,211,0.0,2.0,69,0.00,,,0.00,0,HR-IXP-WINDi_r2_v1.2,2013-03-16 02:46:00,
2013-03-15 22:51:00,37.2,28.0,29.70,West,272,0.0,1.0,69,0.00,,,0.00,0,HR-IXP-WINDi_r2_v1.2,2013-03-16 02:51:00,
2013-03-15 22:57:00,37.0,27.8,29.69,West,261,0.0,1.0,69,0.00,,,0.00,0,HR-IXP-WINDi_r2_v1.2,2013-03-16 02:57:00,
2013-03-15 23:02:00,36.8,27.9,29.69,WSW,256,0.0,1.0,70,0.00,,,0.00,0,HR-IXP-WINDi_r2_v1.2,2013-03-16 03:02:00,
2013-03-15 23:07:00,36.6,27.7,29.70,SW,223,0.0,1.0,70,0.00,,,0.00,0,HR-IXP-WINDi_r2_v1.2,2013-03-16 03:07:00,
2013-03-15 23:13:00,36.4,27.5,29.69,WSW,241,0.0,2.0,70,0.00,,,0.00,0,HR-IXP-WINDi_r2_v1.2,2013-03-16 03:13:00,
2013-03-15 23:18:00,36.4,27.5,29.69,WSW,238,1.0,2.0,70,0.00,,,0.00,0,HR-IXP-WINDi_r2_v1.2,2013-03-16 03:18:00,
2013-03-15 23:23:00,36.4,27.5,29.70,WSW,241,0.0,2.0,70,0.00,,,0.00,0,HR-IXP-WINDi_r2_v1.2,2013-03-16 03:23:00,
2013-03-15 23:28:00,36.4,27.5,29.69,SSW,194,0.0,3.0,70,0.00,,,0.00,0,HR-IXP-WINDi_r2_v1.2,2013-03-16 03:28:00,
2013-03-15 23:34:00,36.3,27.8,29.69,WSW,240,0.0,4.0,71,0.00,,,0.00,0,HR-IXP-WINDi_r2_v1.2,2013-03-16 03:34:00,
2013-03-15 23:39:00,36.3,27.8,29.69,WSW,245,0.0,4.0,71,0.00,,,0.00,0,HR-IXP-WINDi_r2_v1.2,2013-03-16 03:39:00,
2013-03-15 23:44:00,36.2,27.7,29.69,West,270,0.0,3.0,71,0.00,,,0.00,0,HR-IXP-WINDi_r2_v1.2,2013-03-16 03:44:00,
2013-03-15 23:49:00,36.1,27.6,29.70,WSW,252,0.0,2.0,71,0.00,,,0.00,0,HR-IXP-WINDi_r2_v1.2,2013-03-16 03:49:00,
2013-03-15 23:54:00,36.1,27.6,29.70,SSW,194,0.0,2.0,71,0.00,,,0.00,0,HR-IXP-WINDi_r2_v1.2,2013-03-16 03:54:00,
2013-03-15 23:59:00,36.0,27.5,29.70,WSW,251,0.0,3.0,71,0.00,,,0.00,0,HR-IXP-WINDi_r2_v1.2,2013-03-16 03:59:00,